Year,Month,Day,Hour,Minute,Value (Times are PST for windgust in km/hr)
2008,02,06,00,00,16.10
2008,02,06,00,01,16.10
2008,02,06,00,02,17.70
2008,02,06,00,03,17.70
2008,02,06,00,04,20.90
2008,02,06,00,05,19.30
2008,02,06,00,06,11.30
2008,02,06,00,07,20.90
2008,02,06,00,08,20.90
2008,02,06,00,09,19.30
2008,02,06,00,10,22.50
2008,02,06,00,11,19.30
2008,02,06,00,12,22.50
2008,02,06,00,13,19.30
2008,02,06,00,14,17.70
2008,02,06,00,15,20.90
2008,02,06,00,16,24.20
2008,02,06,00,17,29.00
2008,02,06,00,18,27.40
2008,02,06,00,19,22.50
2008,02,06,00,20,27.40
2008,02,06,00,21,19.30
2008,02,06,00,22,20.90
2008,02,06,00,23,30.60
2008,02,06,00,24,29.00
2008,02,06,00,25,32.20
2008,02,06,00,26,30.60
2008,02,06,00,27,32.20
2008,02,06,00,28,24.20
2008,02,06,00,29,24.20
2008,02,06,00,30,24.20
2008,02,06,00,31,24.20
2008,02,06,00,32,24.20
2008,02,06,00,33,24.20
2008,02,06,00,34,24.20
2008,02,06,00,35,24.20
2008,02,06,00,36,24.20
2008,02,06,00,37,24.20
2008,02,06,00,38,17.70
2008,02,06,00,39,19.30
2008,02,06,00,40,20.90
2008,02,06,00,41,24.20
2008,02,06,00,42,24.20
2008,02,06,00,43,16.10
2008,02,06,00,44,32.20
2008,02,06,00,45,24.20
2008,02,06,00,46,27.40
2008,02,06,00,47,19.30
2008,02,06,00,48,25.70
2008,02,06,00,49,22.50
2008,02,06,00,50,16.10
2008,02,06,00,51,20.90
2008,02,06,00,52,17.70
2008,02,06,00,53,24.20
2008,02,06,00,54,20.90
2008,02,06,00,55,16.10
2008,02,06,00,56,14.50
2008,02,06,00,57,19.30
2008,02,06,00,58,16.10
2008,02,06,00,59,11.30
2008,02,06,01,00,9.60
2008,02,06,01,01,16.10
2008,02,06,01,02,16.10
2008,02,06,01,03,11.30
2008,02,06,01,04,14.50
2008,02,06,01,05,11.30
2008,02,06,01,06,9.60
2008,02,06,01,07,17.70
2008,02,06,01,08,16.10
2008,02,06,01,09,16.10
2008,02,06,01,10,16.10
2008,02,06,01,11,11.30
2008,02,06,01,12,6.40
2008,02,06,01,13,14.50
2008,02,06,01,14,6.40
2008,02,06,01,15,9.60
2008,02,06,01,16,11.30
2008,02,06,01,17,11.30
2008,02,06,01,18,9.60
2008,02,06,01,19,12.90
2008,02,06,01,20,16.10
2008,02,06,01,21,11.30
2008,02,06,01,22,27.40
2008,02,06,01,23,22.50
2008,02,06,01,24,20.90
2008,02,06,01,25,17.70
2008,02,06,01,26,19.30
2008,02,06,01,27,11.30
2008,02,06,01,28,9.60
2008,02,06,01,29,11.30
2008,02,06,01,30,16.10
2008,02,06,01,31,19.30
2008,02,06,01,32,16.10
2008,02,06,01,33,19.30
2008,02,06,01,34,17.70
2008,02,06,01,35,19.30
2008,02,06,01,36,17.70
2008,02,06,01,37,19.30
2008,02,06,01,38,16.10
2008,02,06,01,39,19.30
2008,02,06,01,40,19.30
2008,02,06,01,41,17.70
2008,02,06,01,42,12.90
2008,02,06,01,43,12.90
2008,02,06,01,44,17.70
2008,02,06,01,45,12.90
2008,02,06,01,46,22.50
2008,02,06,01,47,14.50
2008,02,06,01,48,19.30
2008,02,06,01,49,16.10
2008,02,06,01,50,22.50
2008,02,06,01,51,19.30
2008,02,06,01,52,17.70
2008,02,06,01,53,19.30
2008,02,06,01,54,16.10
2008,02,06,01,55,17.70
2008,02,06,01,56,17.70
2008,02,06,01,57,22.50
2008,02,06,01,58,24.20
2008,02,06,01,59,19.30
2008,02,06,02,00,17.70
2008,02,06,02,01,20.90
2008,02,06,02,02,20.90
2008,02,06,02,03,19.30
2008,02,06,02,04,16.10
2008,02,06,02,05,17.70
2008,02,06,02,06,16.10
2008,02,06,02,07,17.70
2008,02,06,02,08,20.90
2008,02,06,02,09,19.30
2008,02,06,02,10,17.70
2008,02,06,02,11,24.20
2008,02,06,02,12,16.10
2008,02,06,02,13,9.60
2008,02,06,02,14,16.10
2008,02,06,02,15,11.30
2008,02,06,02,16,19.30
2008,02,06,02,17,14.50
2008,02,06,02,18,17.70
2008,02,06,02,19,8.10
2008,02,06,02,20,11.30
2008,02,06,02,21,19.30
2008,02,06,02,22,17.70
2008,02,06,02,23,17.70
2008,02,06,02,24,16.10
2008,02,06,02,25,16.10
2008,02,06,02,26,8.10
2008,02,06,02,27,17.70
2008,02,06,02,28,11.30
2008,02,06,02,29,16.10
2008,02,06,02,30,19.30
2008,02,06,02,31,14.50
2008,02,06,02,32,17.70
2008,02,06,02,33,17.70
2008,02,06,02,34,17.70
2008,02,06,02,35,11.30
2008,02,06,02,36,9.60
2008,02,06,02,37,6.40
2008,02,06,02,38,9.60
2008,02,06,02,39,16.10
2008,02,06,02,40,16.10
2008,02,06,02,41,9.60
2008,02,06,02,42,19.30
2008,02,06,02,43,25.70
2008,02,06,02,44,17.70
2008,02,06,02,45,19.30
2008,02,06,02,46,19.30
2008,02,06,02,47,20.90
2008,02,06,02,48,16.10
2008,02,06,02,49,17.70
2008,02,06,02,50,16.10
2008,02,06,02,51,19.30
2008,02,06,02,52,20.90
2008,02,06,02,53,27.40
2008,02,06,02,54,22.50
2008,02,06,02,55,29.00
2008,02,06,02,56,24.20
2008,02,06,02,57,20.90
2008,02,06,02,58,25.70
2008,02,06,02,59,19.30
2008,02,06,03,00,32.20
2008,02,06,03,01,27.40
2008,02,06,03,02,20.90
2008,02,06,03,03,19.30
2008,02,06,03,04,17.70
2008,02,06,03,05,20.90
2008,02,06,03,06,20.90
2008,02,06,03,07,22.50
2008,02,06,03,08,22.50
2008,02,06,03,09,20.90
2008,02,06,03,10,30.60
2008,02,06,03,11,19.30
2008,02,06,03,12,22.50
2008,02,06,03,13,19.30
2008,02,06,03,14,25.70
2008,02,06,03,15,24.20
2008,02,06,03,16,27.40
2008,02,06,03,17,20.90
2008,02,06,03,18,20.90
2008,02,06,03,19,22.50
2008,02,06,03,20,17.70
2008,02,06,03,21,17.70
2008,02,06,03,22,17.70
2008,02,06,03,23,25.70
2008,02,06,03,24,22.50
2008,02,06,03,25,22.50
2008,02,06,03,26,17.70
2008,02,06,03,27,17.70
2008,02,06,03,28,27.40
2008,02,06,03,29,22.50
2008,02,06,03,30,16.10
2008,02,06,03,31,19.30
2008,02,06,03,32,20.90
2008,02,06,03,33,22.50
2008,02,06,03,34,19.30
2008,02,06,03,35,25.70
2008,02,06,03,36,20.90
2008,02,06,03,37,14.50
2008,02,06,03,38,16.10
2008,02,06,03,39,9.60
2008,02,06,03,40,8.10
2008,02,06,03,41,8.10
2008,02,06,03,42,8.10
2008,02,06,03,43,8.10
2008,02,06,03,44,16.10
2008,02,06,03,45,17.70
2008,02,06,03,46,9.60
2008,02,06,03,47,8.10
2008,02,06,03,48,8.10
2008,02,06,03,49,11.30
2008,02,06,03,50,14.50
2008,02,06,03,51,11.30
2008,02,06,03,52,9.60
2008,02,06,03,53,14.50
2008,02,06,03,54,14.50
2008,02,06,03,55,11.30
2008,02,06,03,56,11.30
2008,02,06,03,57,11.30
2008,02,06,03,58,16.10
2008,02,06,03,59,11.30
2008,02,06,04,00,9.60
2008,02,06,04,01,6.40
2008,02,06,04,02,14.50
2008,02,06,04,03,16.10
2008,02,06,04,04,6.40
2008,02,06,04,05,9.60
2008,02,06,04,06,16.10
2008,02,06,04,07,17.70
2008,02,06,04,08,14.50
2008,02,06,04,09,9.60
2008,02,06,04,10,11.30
2008,02,06,04,11,8.10
2008,02,06,04,12,11.30
2008,02,06,04,13,9.60
2008,02,06,04,14,8.10
2008,02,06,04,15,9.60
2008,02,06,04,16,11.30
2008,02,06,04,17,9.60
2008,02,06,04,18,6.40
2008,02,06,04,19,6.40
2008,02,06,04,20,8.10
2008,02,06,04,21,16.10
2008,02,06,04,22,14.50
2008,02,06,04,23,14.50
2008,02,06,04,24,14.50
2008,02,06,04,25,8.10
2008,02,06,04,26,9.60
2008,02,06,04,27,11.30
2008,02,06,04,28,6.40
2008,02,06,04,29,6.40
2008,02,06,04,30,9.60
2008,02,06,04,31,12.90
2008,02,06,04,32,9.60
2008,02,06,04,33,9.60
2008,02,06,04,34,8.10
2008,02,06,04,35,8.10
2008,02,06,04,36,9.60
2008,02,06,04,37,9.60
2008,02,06,04,38,8.10
2008,02,06,04,39,17.70
2008,02,06,04,40,11.30
2008,02,06,04,41,12.90
2008,02,06,04,42,11.30
2008,02,06,04,43,9.60
2008,02,06,04,44,16.10
2008,02,06,04,45,11.30
2008,02,06,04,46,14.50
2008,02,06,04,47,11.30
2008,02,06,04,48,11.30
2008,02,06,04,49,19.30
2008,02,06,04,50,11.30
2008,02,06,04,51,16.10
2008,02,06,04,52,14.50
2008,02,06,04,53,9.60
2008,02,06,04,54,8.10
2008,02,06,04,55,6.40
2008,02,06,04,56,6.40
2008,02,06,04,57,4.80
2008,02,06,04,58,9.60
2008,02,06,04,59,9.60
2008,02,06,05,00,6.40
2008,02,06,05,01,6.40
2008,02,06,05,02,14.50
2008,02,06,05,03,9.60
2008,02,06,05,04,17.70
2008,02,06,05,05,8.10
2008,02,06,05,06,9.60
2008,02,06,05,07,17.70
2008,02,06,05,08,8.10
2008,02,06,05,09,6.40
2008,02,06,05,10,8.10
2008,02,06,05,11,11.30
2008,02,06,05,12,4.80
2008,02,06,05,13,11.30
2008,02,06,05,14,6.40
2008,02,06,05,15,8.10
2008,02,06,05,16,6.40
2008,02,06,05,17,11.30
2008,02,06,05,18,14.50
2008,02,06,05,19,14.50
2008,02,06,05,20,14.50
2008,02,06,05,21,8.10
2008,02,06,05,22,6.40
2008,02,06,05,23,1.60
2008,02,06,05,24,6.40
2008,02,06,05,25,14.50
2008,02,06,05,26,19.30
2008,02,06,05,27,14.50
2008,02,06,05,28,9.60
2008,02,06,05,29,6.40
2008,02,06,05,30,9.60
2008,02,06,05,31,9.60
2008,02,06,05,32,3.20
2008,02,06,05,33,9.60
2008,02,06,05,34,9.60
2008,02,06,05,35,9.60
2008,02,06,05,36,14.50
2008,02,06,05,37,25.70
2008,02,06,05,38,24.20
2008,02,06,05,39,22.50
2008,02,06,05,40,24.20
2008,02,06,05,41,17.70
2008,02,06,05,42,35.40
2008,02,06,05,43,37.00
2008,02,06,05,44,30.60
2008,02,06,05,45,22.50
2008,02,06,05,46,27.40
2008,02,06,05,47,27.40
2008,02,06,05,48,24.20
2008,02,06,05,49,32.20
2008,02,06,05,50,24.20
2008,02,06,05,51,17.70
2008,02,06,05,52,20.90
2008,02,06,05,53,9.60
2008,02,06,05,54,16.10
2008,02,06,05,55,17.70
2008,02,06,05,56,16.10
2008,02,06,05,57,16.10
2008,02,06,05,58,11.30
2008,02,06,05,59,9.60
2008,02,06,06,00,11.30
2008,02,06,06,01,9.60
2008,02,06,06,02,9.60
2008,02,06,06,03,17.70
2008,02,06,06,04,11.30
2008,02,06,06,05,16.10
2008,02,06,06,06,8.10
2008,02,06,06,07,16.10
2008,02,06,06,08,11.30
2008,02,06,06,09,9.60
2008,02,06,06,10,9.60
2008,02,06,06,11,14.50
2008,02,06,06,12,16.10
2008,02,06,06,13,14.50
2008,02,06,06,14,14.50
2008,02,06,06,15,19.30
2008,02,06,06,16,16.10
2008,02,06,06,17,8.10
2008,02,06,06,18,20.90
2008,02,06,06,19,11.30
2008,02,06,06,20,9.60
2008,02,06,06,21,14.50
2008,02,06,06,22,11.30
2008,02,06,06,23,16.10
2008,02,06,06,24,8.10
2008,02,06,06,25,9.60
2008,02,06,06,26,8.10
2008,02,06,06,27,11.30
2008,02,06,06,28,16.10
2008,02,06,06,29,6.40
2008,02,06,06,30,4.80
2008,02,06,06,31,3.20
2008,02,06,06,32,6.40
2008,02,06,06,33,4.80
2008,02,06,06,34,11.30
2008,02,06,06,35,8.10
2008,02,06,06,36,8.10
2008,02,06,06,37,11.30
2008,02,06,06,38,4.80
2008,02,06,06,39,1.60
2008,02,06,06,40,9.60
2008,02,06,06,41,3.20
2008,02,06,06,42,4.80
2008,02,06,06,43,4.80
2008,02,06,06,44,3.20
2008,02,06,06,45,3.20
2008,02,06,06,46,4.80
2008,02,06,06,47,6.40
2008,02,06,06,48,6.40
2008,02,06,06,49,8.10
2008,02,06,06,50,3.20
2008,02,06,06,51,4.80
2008,02,06,06,52,4.80
2008,02,06,06,53,9.60
2008,02,06,06,54,6.40
2008,02,06,06,55,14.50
2008,02,06,06,56,8.10
2008,02,06,06,57,6.40
2008,02,06,06,58,17.70
2008,02,06,06,59,9.60
2008,02,06,07,00,9.60
2008,02,06,07,01,9.60
2008,02,06,07,02,6.40
2008,02,06,07,03,4.80
2008,02,06,07,04,9.60
2008,02,06,07,05,8.10
2008,02,06,07,06,6.40
2008,02,06,07,07,8.10
2008,02,06,07,08,9.60
2008,02,06,07,09,9.60
2008,02,06,07,10,4.80
2008,02,06,07,11,4.80
2008,02,06,07,12,8.10
2008,02,06,07,13,8.10
2008,02,06,07,14,4.80
2008,02,06,07,15,1.60
2008,02,06,07,16,6.40
2008,02,06,07,17,3.20
2008,02,06,07,18,4.80
2008,02,06,07,19,1.60
2008,02,06,07,20,3.20
2008,02,06,07,21,4.80
2008,02,06,07,22,3.20
2008,02,06,07,23,6.40
2008,02,06,07,24,3.20
2008,02,06,07,25,3.20
2008,02,06,07,26,6.40
2008,02,06,07,27,6.40
2008,02,06,07,28,4.80
2008,02,06,07,29,4.80
2008,02,06,07,30,6.40
2008,02,06,07,31,8.10
2008,02,06,07,32,6.40
2008,02,06,07,33,9.60
2008,02,06,07,34,9.60
2008,02,06,07,35,3.20
2008,02,06,07,36,3.20
2008,02,06,07,37,3.20
2008,02,06,07,38,6.40
2008,02,06,07,39,4.80
2008,02,06,07,40,1.60
2008,02,06,07,41,1.60
2008,02,06,07,42,4.80
2008,02,06,07,43,4.80
2008,02,06,07,44,1.60
2008,02,06,07,45,1.60
2008,02,06,07,46,4.80
2008,02,06,07,47,6.40
2008,02,06,07,48,4.80
2008,02,06,07,49,1.60
2008,02,06,07,50,6.40
2008,02,06,07,51,1.60
2008,02,06,07,52,3.20
2008,02,06,07,53,0.00
2008,02,06,07,54,4.80
2008,02,06,07,55,16.10
2008,02,06,07,56,8.10
2008,02,06,07,57,4.80
2008,02,06,07,58,8.10
2008,02,06,07,59,11.30
2008,02,06,08,00,24.20
2008,02,06,08,01,14.50
2008,02,06,08,02,6.40
2008,02,06,08,03,8.10
2008,02,06,08,04,4.80
2008,02,06,08,05,14.50
2008,02,06,08,06,6.40
2008,02,06,08,07,17.70
2008,02,06,08,08,14.50
2008,02,06,08,09,14.50
2008,02,06,08,10,16.10
2008,02,06,08,11,16.10
2008,02,06,08,12,9.60
2008,02,06,08,13,16.10
2008,02,06,08,14,20.90
2008,02,06,08,15,12.90
2008,02,06,08,16,22.50
2008,02,06,08,17,11.30
2008,02,06,08,18,24.20
2008,02,06,08,19,25.70
2008,02,06,08,20,24.20
2008,02,06,08,21,24.20
2008,02,06,08,22,25.70
2008,02,06,08,23,24.20
2008,02,06,08,24,38.60
2008,02,06,08,25,25.70
2008,02,06,08,26,19.30
2008,02,06,08,27,19.30
2008,02,06,08,28,24.20
2008,02,06,08,29,22.50
2008,02,06,08,30,25.70
2008,02,06,08,31,20.90
2008,02,06,08,32,20.90
2008,02,06,08,33,30.60
2008,02,06,08,34,17.70
2008,02,06,08,35,20.90
2008,02,06,08,36,24.20
2008,02,06,08,37,24.20
2008,02,06,08,38,24.20
2008,02,06,08,39,24.20
2008,02,06,08,40,24.20
2008,02,06,08,41,24.20
2008,02,06,08,42,19.30
2008,02,06,08,43,33.80
2008,02,06,08,44,22.50
2008,02,06,08,45,29.00
2008,02,06,08,46,27.40
2008,02,06,08,47,16.10
2008,02,06,08,48,19.30
2008,02,06,08,49,17.70
2008,02,06,08,50,20.90
2008,02,06,08,51,22.50
2008,02,06,08,52,24.20
2008,02,06,08,53,27.40
2008,02,06,08,54,20.90
2008,02,06,08,55,20.90
2008,02,06,08,56,17.70
2008,02,06,08,57,29.00
2008,02,06,08,58,17.70
2008,02,06,08,59,22.50
2008,02,06,09,00,19.30
2008,02,06,09,01,20.90
2008,02,06,09,02,20.90
2008,02,06,09,03,19.30
2008,02,06,09,04,19.30
2008,02,06,09,05,19.30
2008,02,06,09,06,22.50
2008,02,06,09,07,14.50
2008,02,06,09,08,17.70
2008,02,06,09,09,12.90
2008,02,06,09,10,19.30
2008,02,06,09,11,16.10
2008,02,06,09,12,19.30
2008,02,06,09,13,12.90
2008,02,06,09,14,16.10
2008,02,06,09,15,16.10
2008,02,06,09,16,24.20
2008,02,06,09,17,19.30
2008,02,06,09,18,11.30
2008,02,06,09,19,19.30
2008,02,06,09,20,16.10
2008,02,06,09,21,16.10
2008,02,06,09,22,20.90
2008,02,06,09,23,17.70
2008,02,06,09,24,27.40
2008,02,06,09,25,14.50
2008,02,06,09,26,11.30
2008,02,06,09,27,19.30
2008,02,06,09,28,22.50
2008,02,06,09,29,11.30
2008,02,06,09,30,11.30
2008,02,06,09,31,9.60
2008,02,06,09,32,14.50
2008,02,06,09,33,9.60
2008,02,06,09,34,8.10
2008,02,06,09,35,17.70
2008,02,06,09,36,17.70
2008,02,06,09,37,14.50
2008,02,06,09,38,14.50
2008,02,06,09,39,8.10
2008,02,06,09,40,20.90
2008,02,06,09,41,17.70
2008,02,06,09,42,14.50
2008,02,06,09,43,9.60
2008,02,06,09,44,14.50
2008,02,06,09,45,14.50
2008,02,06,09,46,14.50
2008,02,06,09,47,14.50
2008,02,06,09,48,27.40
2008,02,06,09,49,14.50
2008,02,06,09,50,20.90
2008,02,06,09,51,16.10
2008,02,06,09,52,20.90
2008,02,06,09,53,19.30
2008,02,06,09,54,11.30
2008,02,06,09,55,8.10
2008,02,06,09,56,8.10
2008,02,06,09,57,8.10
2008,02,06,09,58,8.10
2008,02,06,09,59,19.30
2008,02,06,10,00,20.90
2008,02,06,10,01,17.70
2008,02,06,10,02,12.90
2008,02,06,10,03,12.90
2008,02,06,10,04,20.90
2008,02,06,10,05,6.40
2008,02,06,10,06,24.20
2008,02,06,10,07,24.20
2008,02,06,10,08,22.50
2008,02,06,10,09,17.70
2008,02,06,10,10,16.10
2008,02,06,10,11,17.70
2008,02,06,10,12,22.50
2008,02,06,10,13,14.50
2008,02,06,10,14,22.50
2008,02,06,10,15,29.00
2008,02,06,10,16,22.50
2008,02,06,10,17,29.00
2008,02,06,10,18,25.70
2008,02,06,10,19,20.90
2008,02,06,10,20,17.70
2008,02,06,10,21,27.40
2008,02,06,10,22,22.50
2008,02,06,10,23,22.50
2008,02,06,10,24,20.90
2008,02,06,10,25,27.40
2008,02,06,10,26,24.20
2008,02,06,10,27,27.40
2008,02,06,10,28,30.60
2008,02,06,10,29,25.70
2008,02,06,10,30,27.40
2008,02,06,10,31,29.00
2008,02,06,10,32,33.80
2008,02,06,10,33,33.80
2008,02,06,10,34,32.20
2008,02,06,10,35,29.00
2008,02,06,10,36,24.20
2008,02,06,10,37,27.40
2008,02,06,10,38,22.50
2008,02,06,10,39,22.50
2008,02,06,10,40,19.30
2008,02,06,10,41,11.30
2008,02,06,10,42,17.70
2008,02,06,10,43,14.50
2008,02,06,10,44,17.70
2008,02,06,10,45,19.30
2008,02,06,10,46,16.10
2008,02,06,10,47,16.10
2008,02,06,10,48,9.60
2008,02,06,10,49,11.30
2008,02,06,10,50,16.10
2008,02,06,10,51,11.30
2008,02,06,10,52,11.30
2008,02,06,10,53,14.50
2008,02,06,10,54,16.10
2008,02,06,10,55,6.40
2008,02,06,10,56,9.60
2008,02,06,10,57,12.90
2008,02,06,10,58,9.60
2008,02,06,10,59,11.30
2008,02,06,11,00,11.30
2008,02,06,11,01,11.30
2008,02,06,11,02,12.90
2008,02,06,11,03,6.40
2008,02,06,11,04,8.10
2008,02,06,11,05,11.30
2008,02,06,11,06,8.10
2008,02,06,11,07,8.10
2008,02,06,11,08,11.30
2008,02,06,11,09,9.60
2008,02,06,11,10,12.90
2008,02,06,11,11,16.10
2008,02,06,11,12,14.50
2008,02,06,11,13,14.50
2008,02,06,11,14,9.60
2008,02,06,11,15,9.60
2008,02,06,11,16,14.50
2008,02,06,11,17,9.60
2008,02,06,11,18,12.90
2008,02,06,11,19,9.60
2008,02,06,11,20,9.60
2008,02,06,11,21,12.90
2008,02,06,11,22,14.50
2008,02,06,11,23,8.10
2008,02,06,11,24,11.30
2008,02,06,11,25,8.10
2008,02,06,11,26,8.10
2008,02,06,11,27,9.60
2008,02,06,11,28,8.10
2008,02,06,11,29,6.40
2008,02,06,11,30,8.10
2008,02,06,11,31,4.80
2008,02,06,11,32,6.40
2008,02,06,11,33,4.80
2008,02,06,11,34,4.80
2008,02,06,11,35,8.10
2008,02,06,11,36,8.10
2008,02,06,11,37,8.10
2008,02,06,11,38,16.10
2008,02,06,11,39,14.50
2008,02,06,11,40,22.50
2008,02,06,11,41,12.90
2008,02,06,11,42,11.30
2008,02,06,11,43,16.10
2008,02,06,11,44,19.30
2008,02,06,11,45,19.30
2008,02,06,11,46,16.10
2008,02,06,11,47,22.50
2008,02,06,11,48,30.60
2008,02,06,11,49,22.50
2008,02,06,11,50,25.70
2008,02,06,11,51,27.40
2008,02,06,11,52,29.00
2008,02,06,11,53,20.90
2008,02,06,11,54,29.00
2008,02,06,11,55,27.40
2008,02,06,11,56,29.00
2008,02,06,11,57,29.00
2008,02,06,11,58,27.40
2008,02,06,11,59,24.20
2008,02,06,12,00,37.00
2008,02,06,12,01,27.40
2008,02,06,12,02,25.70
2008,02,06,12,03,25.70
2008,02,06,12,04,24.20
2008,02,06,12,05,24.20
2008,02,06,12,06,20.90
2008,02,06,12,07,22.50
2008,02,06,12,08,22.50
2008,02,06,12,09,19.30
2008,02,06,12,10,29.00
2008,02,06,12,11,32.20
2008,02,06,12,12,27.40
2008,02,06,12,13,30.60
2008,02,06,12,14,27.40
2008,02,06,12,15,24.20
2008,02,06,12,16,27.40
2008,02,06,12,17,25.70
2008,02,06,12,18,19.30
2008,02,06,12,19,20.90
2008,02,06,12,20,17.70
2008,02,06,12,21,20.90
2008,02,06,12,22,20.90
2008,02,06,12,23,16.10
2008,02,06,12,24,11.30
2008,02,06,12,25,11.30
2008,02,06,12,26,16.10
2008,02,06,12,27,20.90
2008,02,06,12,28,17.70
2008,02,06,12,29,17.70
2008,02,06,12,30,17.70
2008,02,06,12,31,16.10
2008,02,06,12,32,11.30
2008,02,06,12,33,11.30
2008,02,06,12,34,19.30
2008,02,06,12,35,17.70
2008,02,06,12,36,12.90
2008,02,06,12,37,16.10
2008,02,06,12,38,17.70
2008,02,06,12,39,20.90
2008,02,06,12,40,9.60
2008,02,06,12,41,14.50
2008,02,06,12,42,14.50
2008,02,06,12,43,11.30
2008,02,06,12,44,20.90
2008,02,06,12,45,14.50
2008,02,06,12,46,20.90
2008,02,06,12,47,19.30
2008,02,06,12,48,11.30
2008,02,06,12,49,19.30
2008,02,06,12,50,11.30
2008,02,06,12,51,6.40
2008,02,06,12,52,8.10
2008,02,06,12,53,9.60
2008,02,06,12,54,16.10
2008,02,06,12,55,17.70
2008,02,06,12,56,19.30
2008,02,06,12,57,17.70
2008,02,06,12,58,6.40
2008,02,06,12,59,12.90
2008,02,06,13,00,16.10
2008,02,06,13,01,8.10
2008,02,06,13,02,14.50
2008,02,06,13,03,16.10
2008,02,06,13,04,9.60
2008,02,06,13,05,17.70
2008,02,06,13,06,8.10
2008,02,06,13,07,4.80
2008,02,06,13,08,4.80
2008,02,06,13,09,8.10
2008,02,06,13,10,4.80
2008,02,06,13,11,9.60
2008,02,06,13,12,16.10
2008,02,06,13,13,11.30
2008,02,06,13,14,11.30
2008,02,06,13,15,14.50
2008,02,06,13,16,16.10
2008,02,06,13,17,17.70
2008,02,06,13,18,11.30
2008,02,06,13,19,11.30
2008,02,06,13,20,14.50
2008,02,06,13,21,11.30
2008,02,06,13,22,19.30
2008,02,06,13,23,14.50
2008,02,06,13,24,8.10
2008,02,06,13,25,3.20
2008,02,06,13,26,6.40
2008,02,06,13,27,4.80
2008,02,06,13,28,4.80
2008,02,06,13,29,6.40
2008,02,06,13,30,9.60
2008,02,06,13,31,8.10
2008,02,06,13,32,11.30
2008,02,06,13,33,6.40
2008,02,06,13,34,3.20
2008,02,06,13,35,3.20
2008,02,06,13,36,8.10
2008,02,06,13,37,8.10
2008,02,06,13,38,8.10
2008,02,06,13,39,9.60
2008,02,06,13,40,8.10
2008,02,06,13,41,6.40
2008,02,06,13,42,6.40
2008,02,06,13,43,8.10
2008,02,06,13,44,8.10
2008,02,06,13,45,9.60
2008,02,06,13,46,11.30
2008,02,06,13,47,8.10
2008,02,06,13,48,8.10
2008,02,06,13,49,6.40
2008,02,06,13,50,6.40
2008,02,06,13,51,6.40
2008,02,06,13,52,4.80
2008,02,06,13,53,4.80
2008,02,06,13,54,3.20
2008,02,06,13,55,3.20
2008,02,06,13,56,4.80
2008,02,06,13,57,4.80
2008,02,06,13,58,3.20
2008,02,06,13,59,3.20
2008,02,06,14,00,1.60
2008,02,06,14,01,3.20
2008,02,06,14,02,3.20
2008,02,06,14,03,3.20
2008,02,06,14,04,3.20
2008,02,06,14,05,3.20
2008,02,06,14,06,3.20
2008,02,06,14,07,4.80
2008,02,06,14,08,3.20
2008,02,06,14,09,3.20
2008,02,06,14,10,4.80
2008,02,06,14,11,3.20
2008,02,06,14,12,4.80
2008,02,06,14,13,4.80
2008,02,06,14,14,4.80
2008,02,06,14,15,3.20
2008,02,06,14,16,6.40
2008,02,06,14,17,6.40
2008,02,06,14,18,3.20
2008,02,06,14,19,1.60
2008,02,06,14,20,3.20
2008,02,06,14,21,3.20
2008,02,06,14,22,6.40
2008,02,06,14,23,8.10
2008,02,06,14,24,6.40
2008,02,06,14,25,3.20
2008,02,06,14,26,6.40
2008,02,06,14,27,4.80
2008,02,06,14,28,4.80
2008,02,06,14,29,4.80
2008,02,06,14,30,4.80
2008,02,06,14,31,3.20
2008,02,06,14,32,3.20
2008,02,06,14,33,4.80
2008,02,06,14,34,4.80
2008,02,06,14,35,3.20
2008,02,06,14,36,3.20
2008,02,06,14,37,6.40
2008,02,06,14,38,4.80
2008,02,06,14,39,3.20
2008,02,06,14,40,1.60
2008,02,06,14,41,4.80
2008,02,06,14,42,4.80
2008,02,06,14,43,3.20
2008,02,06,14,44,3.20
2008,02,06,14,45,3.20
2008,02,06,14,46,3.20
2008,02,06,14,47,3.20
2008,02,06,14,48,1.60
2008,02,06,14,49,1.60
2008,02,06,14,50,1.60
2008,02,06,14,51,1.60
2008,02,06,14,52,0.00
2008,02,06,14,53,1.60
2008,02,06,14,54,1.60
2008,02,06,14,55,0.00
2008,02,06,14,56,0.00
2008,02,06,14,57,1.60
2008,02,06,14,58,3.20
2008,02,06,14,59,3.20
2008,02,06,15,00,3.20
2008,02,06,15,01,1.60
2008,02,06,15,02,1.60
2008,02,06,15,03,3.20
2008,02,06,15,04,1.60
2008,02,06,15,05,1.60
2008,02,06,15,06,1.60
2008,02,06,15,07,1.60
2008,02,06,15,08,3.20
2008,02,06,15,09,3.20
2008,02,06,15,10,3.20
2008,02,06,15,11,1.60
2008,02,06,15,12,1.60
2008,02,06,15,13,1.60
2008,02,06,15,14,0.00
2008,02,06,15,15,1.60
2008,02,06,15,16,1.60
2008,02,06,15,17,1.60
2008,02,06,15,18,1.60
2008,02,06,15,19,3.20
2008,02,06,15,20,1.60
2008,02,06,15,21,1.60
2008,02,06,15,22,3.20
2008,02,06,15,23,3.20
2008,02,06,15,24,3.20
2008,02,06,15,25,1.60
2008,02,06,15,26,0.00
2008,02,06,15,27,0.00
2008,02,06,15,28,0.00
2008,02,06,15,29,0.00
2008,02,06,15,30,0.00
2008,02,06,15,31,1.60
2008,02,06,15,32,0.00
2008,02,06,15,33,3.20
2008,02,06,15,34,3.20
2008,02,06,15,35,3.20
2008,02,06,15,36,1.60
2008,02,06,15,37,3.20
2008,02,06,15,38,3.20
2008,02,06,15,39,1.60
2008,02,06,15,40,1.60
2008,02,06,15,41,1.60
2008,02,06,15,42,1.60
2008,02,06,15,43,0.00
2008,02,06,15,44,0.00
2008,02,06,15,45,0.00
2008,02,06,15,46,0.00
2008,02,06,15,47,0.00
2008,02,06,15,48,1.60
2008,02,06,15,49,1.60
2008,02,06,15,50,1.60
2008,02,06,15,51,1.60
2008,02,06,15,52,1.60
2008,02,06,15,53,1.60
2008,02,06,15,54,0.00
2008,02,06,15,55,0.00
2008,02,06,15,56,0.00
2008,02,06,15,57,0.00
2008,02,06,15,58,0.00
2008,02,06,15,59,0.00
2008,02,06,16,00,0.00
2008,02,06,16,01,0.00
2008,02,06,16,02,0.00
2008,02,06,16,03,1.60
2008,02,06,16,04,1.60
2008,02,06,16,05,1.60
2008,02,06,16,06,1.60
2008,02,06,16,07,1.60
2008,02,06,16,08,0.00
2008,02,06,16,09,0.00
2008,02,06,16,10,0.00
2008,02,06,16,11,0.00
2008,02,06,16,12,0.00
2008,02,06,16,13,0.00
2008,02,06,16,14,0.00
2008,02,06,16,15,0.00
2008,02,06,16,16,0.00
2008,02,06,16,17,0.00
2008,02,06,16,18,1.60
2008,02,06,16,19,1.60
2008,02,06,16,20,0.00
2008,02,06,16,21,1.60
2008,02,06,16,22,0.00
2008,02,06,16,23,1.60
2008,02,06,16,24,1.60
2008,02,06,16,25,1.60
2008,02,06,16,26,1.60
2008,02,06,16,27,0.00
2008,02,06,16,28,0.00
2008,02,06,16,29,0.00
2008,02,06,16,30,0.00
2008,02,06,16,31,0.00
2008,02,06,16,32,0.00
2008,02,06,16,33,0.00
2008,02,06,16,34,0.00
2008,02,06,16,35,0.00
2008,02,06,16,36,0.00
2008,02,06,16,37,0.00
2008,02,06,16,38,0.00
2008,02,06,16,39,0.00
2008,02,06,16,40,0.00
2008,02,06,16,41,0.00
2008,02,06,16,42,0.00
2008,02,06,16,43,0.00
2008,02,06,16,44,0.00
2008,02,06,16,45,0.00
2008,02,06,16,46,0.00
2008,02,06,16,47,0.00
2008,02,06,16,48,1.60
2008,02,06,16,49,0.00
2008,02,06,16,50,0.00
2008,02,06,16,51,0.00
2008,02,06,16,52,0.00
2008,02,06,16,53,0.00
2008,02,06,16,54,0.00
2008,02,06,16,55,0.00
2008,02,06,16,56,0.00
2008,02,06,16,57,0.00
2008,02,06,16,58,0.00
2008,02,06,16,59,0.00
2008,02,06,17,00,0.00
2008,02,06,17,01,0.00
2008,02,06,17,02,0.00
2008,02,06,17,03,0.00
2008,02,06,17,04,1.60
2008,02,06,17,05,1.60
2008,02,06,17,06,1.60
2008,02,06,17,07,1.60
2008,02,06,17,08,1.60
2008,02,06,17,09,3.20
2008,02,06,17,10,1.60
2008,02,06,17,11,1.60
2008,02,06,17,12,3.20
2008,02,06,17,13,3.20
2008,02,06,17,14,3.20
2008,02,06,17,15,1.60
2008,02,06,17,16,3.20
2008,02,06,17,17,1.60
2008,02,06,17,18,3.20
2008,02,06,17,19,3.20
2008,02,06,17,20,3.20
2008,02,06,17,21,1.60
2008,02,06,17,22,1.60
2008,02,06,17,23,1.60
2008,02,06,17,24,3.20
2008,02,06,17,25,1.60
2008,02,06,17,26,3.20
2008,02,06,17,27,3.20
2008,02,06,17,28,3.20
2008,02,06,17,29,3.20
2008,02,06,17,30,3.20
2008,02,06,17,31,3.20
2008,02,06,17,32,3.20
2008,02,06,17,33,3.20
2008,02,06,17,34,4.80
2008,02,06,17,35,3.20
2008,02,06,17,36,1.60
2008,02,06,17,37,3.20
2008,02,06,17,38,3.20
2008,02,06,17,39,1.60
2008,02,06,17,40,1.60